[[{"header":{"parameterUnit":"m.s-1","parameterCategory":1,"la1":30.2991,"la2":30.254,"lo1":-89.0895,"lo2":-89.0444,"dy":0.0017,"dx":0.0017,"nx":28,"ny":28,"refTime":"2024-08-16T09:00:00:Z","depth":0,"parameterNumber":2,"parameterNumberName":"U-component_of_WINDS"},"data":[0,0,0,0,0,0,0,0,0,0,0,0,0,0,0,0,0,0,0,0,0,0,0,0,0,0,0,0,0,0,0,0,0,0,0,0,0,0,0,0,0,0,0,0,0,0,0,0,0,0,0,0,0,0,0,0,0,0,1.0418,1.0419,0,1.0505,1.0506,1.0507,1.0534,1.0534,1.0533,1.0533,1.0621,1.0623,1.0626,0,0,0,0,0,0,0,0,0,0,0,0,0,1.0275,1.0278,1.0418,1.0419,1.042,1.0504,1.0506,1.0507,1.0534,1.0534,1.0533,1.0533,1.062,1.0623,1.0626,0,0,0,0,0,0,0,0,0,0,0,0,0,1.0347,1.0278,1.0418,1.0444,1.0447,1.0504,1.0506,1.0507,1.0534,1.0534,1.0533,1.0533,1.0619,1.0623,1.0627,1.0664,0,0,1.0639,1.0641,0,0,0,0,0,0,0,0,1.0343,1.0352,1.0439,1.0443,1.0446,1.0508,1.0487,1.056,1.0534,1.0501,1.0533,1.0532,1.0584,1.0591,1.0608,1.0668,1.0672,1.064,1.0642,1.0644,1.0645,0,0,0,0,0,0,0,1.0338,1.0349,1.0452,1.0441,1.0445,1.0451,1.046,1.0501,1.0545,1.0504,1.0506,1.0516,1.0586,1.0604,1.061,1.0673,1.064,1.0643,1.0646,1.0647,1.0765,1.0766,0,0,0,0,0,0,1.0329,1.0344,1.045,1.0455,1.0392,1.0454,1.0465,1.0489,1.0544,1.0552,1.0517,1.0517,1.0598,1.0606,1.0614,1.0659,1.0644,1.0648,1.065,1.0764,1.0765,1.0766,0,0,0,0,0,0,1.0325,1.0338,1.0446,1.04,1.0415,1.0457,1.0484,1.0491,1.0509,1.0554,1.0562,1.0528,1.0597,1.0608,1.0651,1.0663,1.0649,1.0653,1.0764,1.0765,1.0766,1.0751,0,0,0,0,0,0,1.0321,1.0336,1.0352,1.04,1.0417,1.0482,1.0485,1.0493,1.0516,1.0518,1.0566,1.0574,1.0598,1.0644,1.0655,1.0668,1.0656,1.0763,1.0764,1.0765,1.0751,1.0752,1.0752,0,0,0,0,0,1.0316,1.0344,1.0352,1.0365,1.0437,1.0483,1.0492,1.0519,1.0517,1.0532,1.056,1.0572,1.066,1.0649,1.066,1.0675,1.0762,1.0764,1.0765,1.075,1.0751,1.0752,0,0,0,0,0,0,1.0296,1.0351,1.0361,1.0406,1.0439,1.0488,1.0508,1.052,1.0555,1.0555,1.0587,1.0597,1.0637,1.0661,1.0647,1.0713,1.0711,1.0715,1.0696,1.0697,1.0698,1.0691,1.066,0,0,0,0,0,1.0297,1.033,1.0377,1.0412,1.0428,1.0465,1.0486,1.0504,1.054,1.0554,1.0586,1.062,1.0655,1.0678,1.0712,1.0754,1.0764,1.077,1.0771,1.0771,1.0774,1.0796,1.0799,1.0771,1.0771,1.0771,0,0,1.0299,1.0333,1.0353,1.0409,1.0437,1.047,1.0477,1.0512,1.0536,1.056,1.0602,1.0626,1.0666,1.0708,1.0728,1.0728,1.0784,1.0773,1.0773,1.0776,1.0798,1.0801,1.0803,1.0772,1.0772,1.0772,0,0,1.032,1.035,1.0381,1.0409,1.0452,1.0475,1.0483,1.0529,1.0546,1.0588,1.0606,1.0635,1.0695,1.0723,1.0744,1.0773,1.0785,1.0783,1.0787,1.0809,1.0811,1.0813,1.0822,1.0825,1.0786,1.0786,1.0786,0,1.0317,1.0368,1.0396,1.043,1.0453,1.0475,1.0507,1.0533,1.0584,1.0599,1.0599,1.0674,1.0703,1.0751,1.0757,1.0775,1.0783,1.0778,1.0808,1.0811,1.0813,1.0822,1.0825,1.0786,1.0786,1.0786,1.0786,0,1.0362,1.0397,1.0417,1.0466,1.0492,1.0524,1.0556,1.0579,1.0594,1.0617,1.0659,1.0694,1.0736,1.0749,1.0764,1.0798,1.0797,1.0802,1.0801,1.0815,1.0824,1.0827,1.0785,1.0785,1.0785,1.0786,0,0,1.0373,1.0436,1.0443,1.0464,1.0512,1.0539,1.0572,1.0612,1.063,1.0664,1.0692,1.0741,1.0746,1.0771,1.0789,1.0808,1.0826,1.081,1.0812,1.0811,1.0865,1.086,1.0864,1.0834,1.0835,1.0836,1.0861,0,1.0399,1.0459,1.0484,1.0532,1.0564,1.0584,1.0613,1.0644,1.0667,1.0696,1.0721,1.0755,1.0759,1.0774,1.0793,1.082,1.0837,1.0819,1.086,1.0861,1.0848,1.0869,1.0864,1.0886,1.0865,1.0865,1.0866,0,1.0438,1.0471,1.0522,1.0564,1.0579,1.0604,1.0642,1.067,1.0706,1.0721,1.0747,1.0764,1.0798,1.0795,1.0842,1.0828,1.0847,1.0862,1.0863,1.0868,1.0864,1.0873,1.0894,1.0897,1.0872,1.0871,1.0871,0,1.0439,1.0497,1.0535,1.0553,1.0603,1.062,1.0642,1.0677,1.0699,1.0732,1.0746,1.0783,1.0803,1.0831,1.0857,1.0852,1.09,1.09,1.0913,1.0912,1.0922,1.0921,1.0946,1.0935,1.0935,1.0935,1.0935,0,1.0465,1.0495,1.0536,1.0559,1.0593,1.0621,1.0654,1.0677,1.0707,1.0735,1.0755,1.078,1.0813,1.0842,1.0862,1.0897,1.0906,1.0919,1.0924,1.0917,1.0915,1.0929,1.0928,1.0936,1.0935,1.0935,1.0935,0,1.0472,1.0501,1.0543,1.0587,1.0599,1.0622,1.0659,1.0681,1.0704,1.0738,1.0748,1.0783,1.0818,1.0847,1.0893,1.0906,1.0943,1.0949,1.093,1.0933,1.0944,1.0942,1.0978,1.0984,1.0969,1.0969,1.0969,0,1.0487,1.051,1.0556,1.0576,1.0597,1.0628,1.0651,1.0679,1.0701,1.0743,1.076,1.0796,1.0827,1.0881,1.0911,1.0946,1.0952,1.0962,1.0958,1.0949,1.0952,1.095,1.0952,1.0963,1.0963,1.0963,1.0963,0,1.0508,1.0521,1.0553,1.0589,1.0615,1.0645,1.0675,1.069,1.0723,1.0747,1.0783,1.0806,1.0852,1.0888,1.0925,1.0947,1.096,1.0964,1.0969,1.0962,1.095,1.0955,1.0931,1.0963,1.0963,1.0963,1.0963,1.0963,1.0519,1.054,1.0576,1.061,1.0635,1.0663,1.0685,1.0711,1.0741,1.0781,1.0795,1.0832,1.0865,1.0917,1.0939,1.0967,1.0969,1.0976,1.0977,1.0979,1.0977,1.0945,1.0974,1.0974,1.0974,1.0974,1.0974,0,1.0541,1.0565,1.0596,1.0637,1.0663,1.0673,1.0706,1.0728,1.0759,1.079,1.0819,1.0859,1.0893,1.0925,1.096,1.0977,1.0983,1.0985,1.0984,1.0988,1.0974,1.0966,1.0979,1.0979,1.0979,1.0979,1.0979,1.0979,1.0556,1.0592,1.0608,1.0656,1.068,1.0715,1.0733,1.0758,1.0782,1.0826,1.0855,1.0875,1.0906,1.0943,1.0974,1.0983,1.0994,1.0994,1.1004,1.099,1.0989,1.0989,1.0981,1.0997,1.0997,1.1016,1.1016,1.1016]},{"header":{"parameterUnit":"m.s-1","parameterCategory":1,"la1":30.2991,"la2":30.254,"lo1":-89.0895,"lo2":-89.0444,"dy":0.0017,"dx":0.0017,"nx":28,"ny":28,"refTime":"2024-08-16T09:00:00:Z","depth":0,"parameterNumber":3,"parameterNumberName":"V-component_of_WINDS"},"data":[0,0,0,0,0,0,0,0,0,0,0,0,0,0,0,0,0,0,0,0,0,0,0,0,0,0,0,0,0,0,0,0,0,0,0,0,0,0,0,0,0,0,0,0,0,0,0,0,0,0,0,0,0,0,0,0,0,0,3.8841,3.8841,0,3.8826,3.8826,3.8826,3.8764,3.8763,3.8761,3.876,3.8745,3.8746,3.8747,0,0,0,0,0,0,0,0,0,0,0,0,0,3.8814,3.8814,3.8841,3.8841,3.8841,3.8826,3.8826,3.8826,3.8765,3.8763,3.8761,3.8759,3.8745,3.8746,3.8747,0,0,0,0,0,0,0,0,0,0,0,0,0,3.8815,3.8815,3.8841,3.8808,3.8805,3.8827,3.8826,3.8826,3.8765,3.8763,3.8761,3.8759,3.8744,3.8746,3.8747,3.8799,0,0,3.8751,3.8752,0,0,0,0,0,0,0,0,3.8815,3.8816,3.8813,3.8811,3.8807,3.8795,3.8811,3.8817,3.8765,3.878,3.876,3.8758,3.8763,3.8763,3.8765,3.8798,3.8797,3.8751,3.8752,3.8753,3.8753,0,0,0,0,0,0,0,3.8815,3.8816,3.8835,3.8813,3.881,3.8794,3.8791,3.8812,3.8784,3.8779,3.8774,3.8773,3.8761,3.8764,3.8764,3.8797,3.8751,3.8752,3.8753,3.8754,3.8869,3.8871,0,0,0,0,0,0,3.882,3.8817,3.8836,3.8835,3.8806,3.8796,3.8793,3.8801,3.8784,3.8779,3.8775,3.8771,3.8762,3.8763,3.8763,3.8821,3.8753,3.8754,3.8755,3.8867,3.8869,3.8872,0,0,0,0,0,0,3.8819,3.8822,3.8836,3.8824,3.8825,3.8799,3.8808,3.8802,3.8804,3.8781,3.8776,3.8783,3.8761,3.8761,3.879,3.8819,3.8755,3.8756,3.8864,3.8867,3.8871,3.8937,0,0,0,0,0,0,3.8819,3.8822,3.8842,3.8825,3.8826,3.8864,3.881,3.8803,3.8807,3.8801,3.8787,3.8782,3.8759,3.8788,3.8791,3.882,3.8757,3.8861,3.8866,3.8869,3.8932,3.8942,3.8951,0,0,0,0,0,3.8818,3.8862,3.8843,3.8846,3.885,3.8866,3.8866,3.8838,3.881,3.8829,3.8813,3.8783,3.8816,3.8791,3.8794,3.8824,3.8859,3.8864,3.8869,3.8928,3.894,3.8951,0,0,0,0,0,0,3.8883,3.8859,3.8838,3.8878,3.8874,3.8855,3.8879,3.8852,3.8856,3.885,3.8816,3.8813,3.8846,3.8838,3.8811,3.8872,3.8832,3.8838,3.8876,3.8887,3.8897,3.8897,3.8758,0,0,0,0,0,3.8902,3.8917,3.8895,3.8932,3.8931,3.8906,3.8911,3.889,3.8884,3.8882,3.8869,3.8865,3.8873,3.888,3.8888,3.8931,3.8926,3.8953,3.8962,3.897,3.8975,3.8995,3.9006,3.8888,3.8888,3.8888,0,0,3.8942,3.893,3.8942,3.8945,3.8939,3.8954,3.8905,3.8923,3.8933,3.8885,3.891,3.8901,3.8893,3.8929,3.8944,3.8923,3.9007,3.8977,3.8983,3.8984,3.9002,3.9013,3.9023,3.8891,3.8891,3.889,0,0,3.9021,3.9015,3.9044,3.9039,3.9031,3.9013,3.902,3.9004,3.8996,3.9021,3.8984,3.8996,3.9013,3.9008,3.9008,3.9084,3.9055,3.9087,3.9136,3.9156,3.9165,3.9173,3.9198,3.9208,3.9093,3.9093,3.9093,0,3.9071,3.9092,3.9062,3.9082,3.9084,3.9041,3.9069,3.9066,3.9061,3.9062,3.904,3.9058,3.9051,3.9083,3.9101,3.9104,3.9109,3.9088,3.9167,3.9174,3.9181,3.9205,3.9214,3.9097,3.9096,3.9096,3.9095,0,3.9153,3.9168,3.9193,3.9188,3.9192,3.9217,3.919,3.9198,3.9176,3.916,3.9185,3.9174,3.9177,3.9184,3.9163,3.9213,3.92,3.9173,3.9132,3.9197,3.9218,3.9227,3.9102,3.9101,3.91,3.9099,0,0,3.9273,3.925,3.9259,3.9255,3.9243,3.9254,3.9276,3.9278,3.9285,3.9283,3.9299,3.9314,3.9287,3.9287,3.9266,3.9284,3.9341,3.9253,3.9252,3.9268,3.9393,3.9413,3.9424,3.9323,3.9324,3.9326,3.9393,0,3.9346,3.9382,3.9355,3.9395,3.9408,3.9366,3.9385,3.9378,3.9364,3.9372,3.9357,3.9367,3.9332,3.9332,3.9347,3.9331,3.9366,3.9326,3.9336,3.9337,3.9338,3.9435,3.9456,3.9521,3.9401,3.9403,3.9404,0,3.9437,3.9438,3.9479,3.9462,3.9466,3.9483,3.9482,3.9491,3.9483,3.9471,3.947,3.9443,3.9462,3.9423,3.9448,3.9421,3.9424,3.9416,3.9418,3.9417,3.9373,3.9435,3.9541,3.955,3.9417,3.9416,3.9415,0,3.9518,3.9529,3.9555,3.9553,3.9534,3.9547,3.9539,3.9529,3.9531,3.9531,3.9532,3.9534,3.9535,3.9536,3.951,3.9484,3.9537,3.9497,3.9527,3.9527,3.9539,3.9538,3.9645,3.9544,3.9543,3.9543,3.9543,0,3.9602,3.9628,3.959,3.9606,3.9634,3.9602,3.963,3.9618,3.9609,3.9621,3.9585,3.9597,3.9563,3.957,3.955,3.9572,3.9574,3.9564,3.9557,3.9566,3.9567,3.9566,3.956,3.9546,3.9545,3.9545,3.9544,0,3.9696,3.9672,3.9697,3.9676,3.9671,3.9693,3.9675,3.9688,3.9671,3.9686,3.9688,3.9661,3.9668,3.9643,3.9646,3.9632,3.9664,3.9652,3.9667,3.9663,3.9694,3.969,3.9802,3.9814,3.9707,3.9708,3.9709,0,3.975,3.9769,3.9751,3.9756,3.975,3.9759,3.9761,3.973,3.9734,3.9725,3.9739,3.9743,3.9744,3.9758,3.9738,3.974,3.9726,3.9765,3.9726,3.9733,3.9724,3.9723,3.9724,3.9773,3.9774,3.9775,3.9776,0,3.9849,3.9835,3.984,3.984,3.9843,3.9842,3.9838,3.9845,3.9811,3.9817,3.9824,3.9825,3.9827,3.9831,3.9829,3.982,3.9792,3.9789,3.9795,3.9803,3.981,3.9805,3.9687,3.9786,3.9785,3.9784,3.9784,3.9783,3.9923,3.9937,3.9926,3.9931,3.9925,3.9922,3.9932,3.9916,3.9921,3.9921,3.9902,3.9912,3.9901,3.9895,3.9889,3.9896,3.9878,3.9888,3.989,3.9893,3.9897,3.9811,3.9896,3.9895,3.9895,3.9895,3.9895,0,4.0018,4.0008,4.0014,4.0009,4.0013,3.9986,3.998,3.9985,3.9994,3.9987,3.9989,3.9995,3.9999,3.9979,3.998,3.9989,3.9976,3.999,3.9988,3.9986,3.9915,3.9908,4.0,4.0,4.0,4.0,4.0,4.0,4.0067,4.0089,4.0074,4.0092,4.0082,4.0091,4.0089,4.0086,4.0079,4.0088,4.009,4.0078,4.0065,4.0064,4.0065,4.006,4.0061,4.0079,4.0068,4.0002,3.9991,3.9981,3.9975,4.008,4.008,4.0139,4.0139,4.014]}]]